WXForecasting.com
Aberdeen, SD - Weather Station Data
 
Daily Summary for June 18, 2018 Units:  English    Metric   Both
Next Day »
Daily Weekly Monthly Yearly Custom
  Current: High: Low: Average:
Temperature: 63.3 °F 64.9 °F 63.3 °F 63.9 °F
Dew Point: 56.0 °F 59.0 °F 56.0 °F 57 °F
Humidity: 77% 82% 75% 78%
Wind Speed: 1.0mph 7.0mph 1.0mph 3.1mph
Wind Gust: 9.0mph 11.0mph - -
WindNNE - - SE
Pressure: 29.95 in 29.95 in 29.90 in -
Precipitation: 0.00 in      
Historical Graphs
 
 
Tabular Data for June 18, 2018
Time Temperature Dew Point Pressure Wind Wind Speed Wind Gust Humidity Rainfall Rate (Hourly) solar Conditions
00:10 64.9 °F 59.0 °F 29.92 in NNE 5.0 mph 9.0 mph 80% 0.00 in 0.00 W/m2
00:25 64.5 °F 58.0 °F 29.92 in NNW 4.0 mph 6.0 mph 80% 0.00 in 0.00 W/m2
00:40 64.4 °F 58.0 °F 29.92 in NNW 3.0 mph 6.0 mph 80% 0.00 in 0.00 W/m2
00:55 64.0 °F 58.0 °F 29.92 in NNW 3.0 mph 5.0 mph 82% 0.00 in 0.00 W/m2
01:10 63.7 °F 58.0 °F 29.91 in NNW 2.0 mph 8.0 mph 82% 0.00 in 0.00 W/m2
01:25 63.6 °F 58.0 °F 29.91 in North 4.0 mph 6.0 mph 82% 0.00 in 0.00 W/m2
01:40 63.4 °F 58.0 °F 29.91 in North 2.0 mph 6.0 mph 81% 0.00 in 0.00 W/m2
01:55 63.4 °F 57.0 °F 29.90 in North 3.0 mph 6.0 mph 80% 0.00 in 0.00 W/m2
02:10 63.5 °F 57.0 °F 29.91 in North 3.0 mph 8.0 mph 78% 0.00 in 0.00 W/m2
02:25 63.7 °F 57.0 °F 29.91 in North 3.0 mph 8.0 mph 78% 0.00 in 0.00 W/m2
02:40 63.7 °F 57.0 °F 29.91 in North 2.0 mph 10.0 mph 78% 0.00 in 0.00 W/m2
02:55 63.7 °F 57.0 °F 29.92 in NNE 2.0 mph 6.0 mph 78% 0.00 in 0.00 W/m2
03:10 63.9 °F 57.0 °F 29.93 in North 4.0 mph 9.0 mph 78% 0.00 in 0.00 W/m2
03:25 64.0 °F 57.0 °F 29.93 in North 5.0 mph 8.0 mph 78% 0.00 in 0.00 W/m2
03:40 63.9 °F 57.0 °F 29.93 in North 3.0 mph 10.0 mph 78% 0.00 in 0.00 W/m2
03:55 64.1 °F 57.0 °F 29.93 in North 3.0 mph 10.0 mph 78% 0.00 in 0.00 W/m2
04:11 64.4 °F 57.0 °F 29.93 in NNE 3.0 mph 11.0 mph 76% 0.00 in 0.00 W/m2
04:26 64.5 °F 56.0 °F 29.94 in NE 4.0 mph 9.0 mph 75% 0.00 in 0.00 W/m2
04:41 64.4 °F 56.0 °F 29.94 in North 1.0 mph 9.0 mph 75% 0.00 in 0.00 W/m2
04:56 64.3 °F 57.0 °F 29.94 in North 4.0 mph 6.0 mph 76% 0.00 in 0.00 W/m2
05:11 64.0 °F 56.0 °F 29.95 in North 3.0 mph 9.0 mph 76% 0.00 in 0.00 W/m2
05:26 63.9 °F 57.0 °F 29.95 in North 2.0 mph 8.0 mph 77% 0.00 in 0.00 W/m2
05:41 63.8 °F 56.0 °F 29.94 in North 7.0 mph 8.0 mph 77% 0.00 in 0.00 W/m2
05:56 63.5 °F 56.0 °F 29.95 in North 2.0 mph 6.0 mph 77% 0.00 in 0.00 W/m2
06:11 63.4 °F 56.0 °F 29.95 in NNE 2.0 mph 10.0 mph 77% 0.00 in 11.00 W/m2
06:26 63.3 °F 56.0 °F 29.95 in NNE 1.0 mph 9.0 mph 77% 0.00 in 26.00 W/m2